EW9665 Weather Reports


time (UTC)temp
F
wind
direction
speed
knots
gust
knots
rain 1hr
in
rain 24hr
in
rain mn
in
humidity
%
barometer
mb
20260507151015 58 0 0.0 1.7 0.00 0.00 0.00 62 1017.5
20260507150516 58 0 0.0 1.7 0.00 0.00 0.00 66 1017.5
20260507150029 58 0 0.0 1.7 0.00 0.00 0.00 61 1017.4
20260507145516 58 0 0.0 2.6 0.00 0.00 0.00 62 1017.5
20260507145016 58 0 0.0 2.6 0.00 0.00 0.00 61 1017.4
20260507144533 58 87 0.9 2.6 0.00 0.00 0.00 62 1017.4
20260507144016 58 0 0.0 2.6 0.00 0.00 0.00 61 1017.5
20260507143517 58 0 0.0 2.6 0.00 0.00 0.00 61 1017.4
20260507143055 58 0 1.7 2.6 0.00 0.00 0.00 62 1017.3
20260507142515 58 66 0.0 2.6 0.00 0.00 0.00 61 1017.3
20260507142017 58 0 0.0 3.5 0.00 0.00 0.00 64 1017.4
20260507141543 58 0 0.9 4.3 0.00 0.00 0.00 63 1017.6
20260507141014 58 0 0.0 4.3 0.00 0.00 0.00 60 1017.6
20260507140517 58 0 0.0 3.5 0.00 0.00 0.00 63 1017.5
20260507140035 58 0 0.0 3.5 0.00 0.00 0.00 64 1017.6
20260507135517 57 95 0.9 6.1 0.00 0.00 0.00 64 1017.6
20260507135015 57 97 3.5 6.1 0.00 0.00 0.00 62 1017.6
20260507134532 58 85 0.0 3.5 0.00 0.00 0.00 66 1017.7
20260507134015 57 0 1.7 5.2 0.00 0.00 0.00 64 1017.7
20260507133516 57 55 1.7 5.2 0.00 0.00 0.00 64 1017.7
20260507133034 57 99 0.0 5.2 0.00 0.00 0.00 63 1017.7
20260507132516 57 97 1.7 5.2 0.00 0.00 0.00 65 1017.8
20260507132014 57 85 2.6 5.2 0.00 0.00 0.00 63 1017.7
20260507131537 57 66 2.6 4.3 0.00 0.00 0.00 63 1017.7
20260507131019 57 116 1.7 6.1 0.00 0.00 0.00 64 1017.7
20260507130516 58 118 2.6 7.0 0.00 0.00 0.00 65 1017.5
20260507130040 58 95 3.5 7.0 0.00 0.00 0.00 64 1017.6
20260507125518 59 353 0.0 4.3 0.00 0.00 0.00 62 1017.6
20260507125014 59 351 0.9 7.8 0.00 0.00 0.00 65 1017.6
20260507124531 58 91 0.9 7.8 0.00 0.00 0.00 62 1017.6
20260507124015 59 106 2.6 7.8 0.00 0.00 0.00 66 1017.5
20260507123517 59 21 0.9 7.0 0.00 0.00 0.00 66 1017.5
20260507123030 58 84 2.6 7.0 0.00 0.00 0.00 65 1017.5
20260507122516 57 65 2.6 7.0 0.00 0.00 0.00 65 1017.6
20260507122014 57 68 3.5 8.7 0.00 0.00 0.00 68 1017.7
20260507121530 57 0 1.7 8.7 0.00 0.00 0.00 70 1017.7
20260507121016 57 128 0.0 6.1 0.00 0.00 0.00 68 1017.7
20260507120516 56 99 2.6 6.1 0.00 0.00 0.00 67 1017.7
20260507120029 56 101 0.9 3.5 0.00 0.00 0.00 69 1017.7
20260507115514 56 49 0.0 6.1 0.00 0.00 0.00 70 1017.7
20260507115016 56 113 1.7 6.1 0.00 0.00 0.00 69 1017.6
20260507114531 56 101 2.6 5.2 0.00 0.00 0.00 69 1017.6
20260507114014 56 98 2.6 6.1 0.00 0.00 0.00 69 1017.6
20260507113521 56 81 3.5 6.1 0.00 0.00 0.00 69 1017.5
20260507113031 56 106 2.6 6.1 0.00 0.00 0.00 69 1017.6
20260507112515 56 100 3.5 6.1 0.00 0.00 0.00 70 1017.5
20260507112016 56 95 2.6 5.2 0.00 0.00 0.00 68 1017.6
20260507111533 57 95 1.7 3.5 0.00 0.00 0.00 68 1017.7
20260507111015 57 0 1.7 5.2 0.00 0.00 0.00 69 1017.7
20260507110515 57 0 1.7 6.1 0.00 0.00 0.00 68 1017.7
20260507110031 57 51 2.6 6.1 0.00 0.00 0.00 66 1017.6
20260507105516 58 58 0.9 5.2 0.00 0.00 0.00 68 1017.7
20260507105016 58 180 0.0 1.7 0.00 0.00 0.00 68 1017.6
20260507104531 57 0 0.0 2.6 0.00 0.00 0.00 68 1017.5
20260507104016 57 0 0.0 3.5 0.00 0.00 0.00 68 1017.6
20260507103516 56 0 0.0 6.1 0.00 0.00 0.00 67 1017.7
20260507103032 56 74 1.7 6.1 0.00 0.00 0.00 67 1017.7
20260507102516 56 0 0.0 6.1 0.00 0.00 0.00 69 1017.7
20260507102016 56 353 1.7 6.1 0.00 0.00 0.00 69 1017.7
20260507101534 56 2 1.7 6.1 0.00 0.00 0.00 70 1017.7
20260507101015 56 81 2.6 6.1 0.00 0.00 0.00 73 1017.7
20260507100515 56 81 2.6 6.1 0.00 0.00 0.00 74 1017.6
20260507100038 55 0 0.0 6.1 0.00 0.00 0.00 73 1017.7
20260507095516 55 102 1.7 5.2 0.00 0.00 0.00 74 1017.6
20260507095017 55 64 1.7 5.2 0.00 0.00 0.00 74 1017.7
20260507094533 55 296 0.9 6.1 0.00 0.00 0.00 76 1017.6
20260507094018 55 14 0.9 6.1 0.00 0.00 0.00 76 1017.5
20260507093514 55 62 2.6 5.2 0.00 0.00 0.00 76 1017.5
20260507093030 55 322 0.0 6.1 0.00 0.00 0.00 78 1017.5
20260507092515 54 0 0.9 6.1 0.00 0.00 0.00 77 1017.5
20260507092021 54 37 0.0 6.1 0.00 0.00 0.00 77 1017.5
20260507091535 53 25 1.7 6.1 0.00 0.00 0.00 78 1017.5
20260507091018 53 349 0.9 6.1 0.00 0.00 0.00 78 1017.5
20260507090515 53 77 2.6 6.1 0.00 0.00 0.00 79 1017.5
20260507090038 53 52 2.6 5.2 0.00 0.00 0.00 80 1017.5
20260507085516 52 90 1.7 5.2 0.00 0.00 0.00 81 1017.4
20260507085017 52 0 0.0 6.1 0.00 0.00 0.00 81 1017.4
20260507084534 52 335 2.6 6.1 0.00 0.00 0.00 81 1017.4
20260507084016 52 45 1.7 6.1 0.00 0.00 0.00 83 1017.5
20260507083516 52 56 0.9 6.1 0.00 0.00 0.00 84 1017.5
20260507083032 51 329 0.9 6.1 0.00 0.00 0.00 84 1017.3
20260507082514 51 325 2.6 7.0 0.00 0.00 0.00 84 1017.4
20260507082016 51 55 1.7 7.0 0.00 0.00 0.00 84 1017.3
20260507081531 51 351 2.6 6.1 0.00 0.00 0.00 84 1017.3
20260507081016 51 357 0.9 4.3 0.00 0.00 0.00 85 1017.4
20260507080514 50 0 0.9 4.3 0.00 0.00 0.00 85 1017.2
20260507080034 50 353 0.9 4.3 0.00 0.00 0.00 85 1017.3
20260507075515 50 335 0.9 4.3 0.00 0.01 0.00 85 1017.2
20260507075017 50 0 0.0 3.5 0.00 0.01 0.00 86 1017.2
20260507074534 50 357 0.9 3.5 0.00 0.01 0.00 86 1017.2
20260507074018 49 358 0.0 2.6 0.00 0.01 0.00 87 1017.2
20260507073514 49 358 0.0 1.7 0.00 0.01 0.00 87 1017.1
20260507073033 49 0 0.0 2.6 0.00 0.01 0.00 87 1017.2
20260507072517 49 0 0.0 3.5 0.00 0.01 0.00 87 1017.2
20260507072018 49 73 0.9 3.5 0.00 0.01 0.00 87 1017.1
20260507071534 49 0 0.0 3.5 0.00 0.01 0.00 87 1017.1
20260507071020 49 37 0.0 4.3 0.00 0.01 0.00 88 1017.1
20260507070514 48 334 1.7 4.3 0.00 0.01 0.00 87 1017.0
20260507070036 48 0 0.0 1.7 0.00 0.01 0.00 88 1016.9
20260507065515 48 0 0.0 4.3 0.00 0.02 0.00 88 1017.0
20260507065014 48 337 0.9 4.3 0.00 0.02 0.00 88 1016.8
20260507064555 48 337 1.7 4.3 0.00 0.02 0.00 88 1016.8
20260507064015 48 341 1.7 3.5 0.00 0.02 0.00 89 1016.8
20260507063516 48 0 0.0 0.0 0.00 0.02 0.00 89 1016.7
20260507063034 48 0 0.0 0.0 0.00 0.02 0.00 89 1016.7
20260507062521 47 0 0.0 0.0 0.00 0.02 0.00 89 1016.8
20260507062016 47 0 0.0 0.0 0.00 0.02 0.00 89 1016.8
20260507061533 47 0 0.0 0.0 0.00 0.02 0.00 89 1016.6
20260507061016 47 0 0.0 0.0 0.00 0.02 0.00 89 1016.6
20260507060515 47 0 0.0 0.0 0.00 0.02 0.00 89 1016.5
20260507060032 47 0 0.0 0.9 0.00 0.02 0.00 89 1016.4
20260507055515 47 0 0.0 0.9 0.00 0.03 0.00 90 1016.3
20260507055016 47 0 0.0 0.9 0.00 0.03 0.00 90 1016.4
20260507054529 47 0 0.0 0.0 0.00 0.03 0.00 90 1016.4
20260507054015 47 0 0.0 0.0 0.00 0.03 0.00 90 1016.3
20260507053515 47 0 0.0 0.0 0.00 0.03 0.00 90 1016.3
20260507053031 47 0 0.0 3.5 0.00 0.03 0.00 90 1016.2
20260507052515 47 0 0.0 3.5 0.00 0.03 0.00 90 1016.2
20260507052016 47 0 0.0 3.5 0.00 0.03 0.00 90 1016.3
20260507051534 46 0 0.9 3.5 0.00 0.03 0.00 90 1016.2
20260507051015 46 344 0.0 3.5 0.00 0.03 0.00 90 1016.2
20260507050514 46 0 0.0 0.0 0.00 0.03 0.00 90 1016.2
20260507050041 46 0 0.0 0.0 0.00 0.03 0.00 90 1016.0
20260507045516 46 0 0.0 0.0 0.00 0.06 0.00 90 1016.0
20260507045019 46 0 0.0 0.0 0.00 0.06 0.00 90 1016.0
20260507044532 46 0 0.0 0.0 0.00 0.06 0.00 91 1016.0
20260507044013 46 0 0.0 0.0 0.00 0.06 0.00 91 1016.0
20260507043515 46 0 0.0 0.0 0.00 0.06 0.00 91 1015.8
20260507043033 46 0 0.0 0.0 0.00 0.06 0.00 91 1015.8
20260507042515 46 0 0.0 0.0 0.00 0.06 0.00 91 1015.8
20260507042014 46 0 0.0 2.6 0.00 0.06 0.00 90 1015.8
20260507041530 46 0 0.0 2.6 0.00 0.06 0.00 90 1015.8
20260507041014 46 0 0.0 0.9 0.00 0.06 0.00 90 1015.7
20260507040516 46 0 0.0 0.9 0.00 0.06 0.00 90 1015.6
20260507040031 46 0 0.0 0.0 0.00 0.06 0.00 90 1015.7
20260507035515 46 0 0.0 0.0 0.00 0.07 0.00 90 1015.6
20260507035014 46 0 0.0 0.0 0.00 0.07 0.00 90 1015.6
20260507034530 46 0 0.0 0.0 0.00 0.07 0.00 90 1015.6
20260507034017 46 0 0.0 0.0 0.00 0.07 0.00 90 1015.5
20260507033517 46 0 0.0 0.0 0.00 0.07 0.00 90 1015.4
20260507033032 46 0 0.0 0.0 0.00 0.07 0.00 90 1015.5
20260507032514 46 0 0.0 0.9 0.00 0.07 0.00 90 1015.5
20260507032017 46 0 0.0 0.9 0.00 0.07 0.00 90 1015.4
20260507031534 46 0 0.0 0.0 0.00 0.07 0.00 90 1015.3
20260507031015 46 0 0.0 0.0 0.00 0.07 0.00 90 1015.4
20260507030519 46 0 0.0 0.0 0.00 0.07 0.00 90 1015.4
20260507030036 46 0 0.0 0.0 0.00 0.07 0.00 90 1015.4
20260507025516 46 0 0.0 0.0 0.00 0.08 0.00 90 1015.4
20260507025015 46 0 0.0 0.0 0.00 0.08 0.00 90 1015.3
20260507024533 46 0 0.0 0.0 0.00 0.08 0.00 90 1015.3
20260507024013 46 0 0.0 0.0 0.00 0.08 0.00 90 1015.4
20260507023515 46 0 0.0 0.0 0.00 0.08 0.00 90 1015.4
20260507023030 46 0 0.0 0.0 0.00 0.08 0.00 90 1015.3
20260507022516 46 0 0.0 0.0 0.00 0.08 0.00 90 1015.2
20260507022015 46 0 0.0 0.0 0.00 0.08 0.00 90 1015.2
20260507021530 46 0 0.0 0.0 0.00 0.08 0.00 90 1015.2
20260507021016 46 0 0.0 0.0 0.00 0.08 0.00 90 1015.1
20260507020516 46 0 0.0 0.0 0.00 0.08 0.00 90 1015.0
20260507020035 46 0 0.0 0.0 0.00 0.08 0.00 90 1015.0
20260507015520 46 0 0.0 0.0 0.00 0.09 0.00 90 1014.9
20260507015015 46 0 0.0 0.0 0.00 0.09 0.00 90 1015.0
20260507014531 46 0 0.0 0.0 0.00 0.09 0.00 90 1014.9
20260507014016 46 0 0.0 0.0 0.00 0.09 0.00 90 1015.0
20260507013516 46 0 0.0 0.0 0.00 0.09 0.00 90 1014.9
20260507013031 46 0 0.0 0.0 0.00 0.09 0.00 90 1015.0
20260507012515 46 0 0.0 0.0 0.00 0.09 0.00 90 1015.0
20260507012015 46 0 0.0 0.0 0.00 0.09 0.00 90 1015.0
20260507011537 46 0 0.0 0.0 0.00 0.09 0.00 90 1015.0
20260507011015 46 0 0.0 0.0 0.00 0.09 0.00 90 1015.0
20260507010515 46 0 0.0 0.0 0.00 0.09 0.00 90 1015.0
20260507010048 46 0 0.0 0.0 0.00 0.09 0.00 90 1015.0
20260507005513 46 0 0.0 0.0 0.00 0.12 0.00 90 1014.9
20260507005017 46 0 0.0 0.0 0.00 0.12 0.00 90 1014.9
20260507004532 46 0 0.0 0.0 0.00 0.12 0.00 90 1014.9
20260507004016 46 0 0.0 0.0 0.00 0.12 0.00 90 1014.9
20260507003515 46 0 0.0 0.0 0.00 0.12 0.00 90 1014.9
20260507003032 46 0 0.0 0.0 0.00 0.12 0.00 90 1014.9
20260507002514 46 0 0.0 0.0 0.00 0.12 0.00 90 1014.9
20260507002021 46 0 0.0 0.0 0.00 0.12 0.00 90 1014.9
20260507001530 46 0 0.0 0.0 0.00 0.12 0.00 90 1014.8
20260507001014 46 0 0.0 0.0 0.00 0.12 0.00 90 1015.0
20260507000518 47 0 0.0 0.0 0.00 0.12 0.00 90 1014.9
20260507000029 47 0 0.0 0.0 0.00 0.12 0.00 90 1014.7
20260506235517 47 0 0.0 0.0 0.00 0.14 0.00 90 1014.8
20260506235014 47 0 0.0 0.0 0.00 0.14 0.00 90 1014.7
20260506234532 47 0 0.0 0.0 0.00 0.14 0.00 90 1014.8
20260506234016 47 0 0.0 0.0 0.00 0.14 0.00 90 1014.7
20260506233517 47 0 0.0 0.0 0.00 0.14 0.00 90 1014.7
20260506233030 47 0 0.0 0.0 0.00 0.14 0.00 90 1014.6
20260506232515 47 0 0.0 0.0 0.00 0.14 0.00 90 1014.6
20260506232014 47 0 0.0 0.0 0.00 0.14 0.00 90 1014.5
20260506231533 47 0 0.0 0.0 0.00 0.14 0.00 90 1014.5
20260506231017 47 0 0.0 0.0 0.00 0.14 0.00 90 1014.5
20260506230515 47 0 0.0 0.0 0.00 0.14 0.00 90 1014.5
20260506230032 47 0 0.0 0.0 0.00 0.14 0.00 89 1014.5
20260506225515 47 0 0.0 0.9 0.00 0.18 0.00 90 1014.4
20260506225015 47 0 0.0 0.9 0.00 0.18 0.00 89 1014.3
20260506224535 47 0 0.0 0.0 0.00 0.18 0.00 89 1014.2
20260506224017 47 0 0.0 0.0 0.00 0.18 0.00 89 1014.1
20260506223515 47 0 0.0 0.0 0.00 0.18 0.00 89 1014.0
20260506223032 47 0 0.0 0.9 0.00 0.18 0.00 89 1014.0
20260506222515 47 0 0.0 0.9 0.00 0.18 0.00 89 1014.1
20260506222018 47 0 0.0 0.9 0.00 0.18 0.00 89 1014.0
20260506221529 47 0 0.0 2.6 0.00 0.18 0.00 89 1014.0
20260506221014 46 0 0.0 2.6 0.00 0.18 0.00 89 1013.9
20260506220514 46 0 0.0 0.0 0.00 0.18 0.00 89 1013.9
20260506220035 46 0 0.0 0.0 0.00 0.18 0.00 89 1014.0
20260506215519 46 0 0.0 0.0 0.00 0.22 0.18 89 1014.0
20260506215016 46 0 0.0 0.0 0.00 0.22 0.18 89 1014.0
20260506214536 46 0 0.0 0.0 0.00 0.22 0.18 89 1013.9
20260506214013 46 0 0.0 0.0 0.00 0.22 0.18 89 1013.9
20260506213517 46 0 0.0 0.0 0.00 0.22 0.18 89 1013.8
20260506213029 46 0 0.0 0.0 0.00 0.22 0.18 89 1013.8
20260506212515 46 0 0.0 0.0 0.00 0.22 0.18 89 1013.7
20260506212020 46 0 0.0 0.0 0.00 0.22 0.18 89 1013.8
20260506211534 46 0 0.0 0.0 0.00 0.22 0.18 88 1013.7
20260506211016 46 0 0.0 0.0 0.00 0.22 0.18 88 1013.7
20260506210513 46 0 0.0 0.0 0.00 0.22 0.18 88 1013.6
20260506210033 46 0 0.0 0.9 0.00 0.22 0.18 88 1013.5
20260506205514 46 0 0.0 1.7 0.00 0.26 0.18 87 1013.6
20260506205015 46 0 0.0 1.7 0.00 0.26 0.18 87 1013.5
20260506204535 46 0 0.0 1.7 0.00 0.26 0.18 86 1013.5
20260506204015 46 0 0.0 2.6 0.00 0.26 0.18 86 1013.5
20260506203515 46 0 0.0 2.6 0.00 0.26 0.18 85 1013.5
20260506203033 46 0 0.0 2.6 0.00 0.26 0.18 85 1013.4
20260506202514 46 0 0.0 1.7 0.00 0.26 0.18 84 1013.5
20260506202016 47 0 0.0 1.7 0.00 0.26 0.18 84 1013.4
20260506201538 47 355 0.0 1.7 0.00 0.26 0.18 84 1013.3
20260506201016 47 0 0.0 1.7 0.00 0.26 0.18 84 1013.3
20260506200515 47 0 0.0 1.7 0.00 0.26 0.18 83 1013.3
20260506200030 47 355 0.0 1.7 0.00 0.26 0.18 83 1013.2
20260506195516 48 0 0.0 1.7 0.00 0.31 0.18 83 1013.1
20260506195015 48 355 0.0 1.7 0.00 0.31 0.18 82 1013.1
20260506194528 48 0 0.0 2.6 0.00 0.31 0.18 82 1013.0
20260506194017 48 0 0.0 2.6 0.00 0.31 0.18 81 1013.0
20260506193515 49 353 0.0 2.6 0.00 0.31 0.18 81 1012.9
20260506193031 49 353 0.0 3.5 0.00 0.31 0.18 81 1012.8
20260506192515 49 356 0.0 3.5 0.00 0.31 0.18 81 1012.7
20260506192017 50 0 0.0 1.7 0.00 0.31 0.18 80 1012.6
20260506191533 50 0 0.0 1.7 0.00 0.31 0.18 79 1012.5
20260506191013 50 0 0.0 1.7 0.00 0.31 0.18 79 1012.5
20260506190516 50 0 0.0 2.6 0.00 0.31 0.18 78 1012.4
20260506190031 50 0 0.0 6.1 0.00 0.31 0.18 77 1012.4
20260506185515 50 6 0.0 6.1 0.00 0.31 0.18 77 1012.3
20260506185017 51 43 0.9 4.3 0.00 0.31 0.18 77 1012.3
20260506184533 51 29 0.9 3.5 0.00 0.31 0.18 77 1012.2
20260506184015 51 0 0.0 3.5 0.00 0.31 0.18 77 1012.1
20260506183513 51 0 0.9 3.5 0.00 0.31 0.18 76 1012.2
20260506183032 51 23 0.9 3.5 0.00 0.31 0.18 76 1012.1
20260506182515 52 58 0.9 4.3 0.00 0.31 0.18 76 1012.0
20260506182014 52 78 0.9 5.2 0.00 0.31 0.18 76 1012.0
20260506181532 52 48 0.9 5.2 0.00 0.31 0.18 76 1011.9
20260506181016 52 71 1.7 5.2 0.00 0.31 0.18 77 1011.8
20260506180516 53 0 0.9 4.3 0.00 0.31 0.18 76 1011.7
20260506180038 53 38 0.9 7.0 0.00 0.31 0.18 76 1011.6
20260506175516 53 67 0.9 7.0 0.00 0.31 0.18 77 1011.5
20260506175017 53 0 0.9 5.2 0.00 0.31 0.18 78 1011.5
20260506174533 54 33 1.7 4.3 0.00 0.31 0.18 78 1011.4
20260506174013 54 0 0.0 2.6 0.00 0.31 0.18 78 1011.4
20260506173515 54 18 0.0 4.3 0.00 0.31 0.18 78 1011.3
20260506173031 54 0 0.9 5.2 0.00 0.31 0.18 77 1011.3
20260506172515 54 0 0.9 6.1 0.00 0.31 0.18 77 1011.2
20260506172013 54 40 0.9 6.1 0.00 0.31 0.18 77 1011.2
20260506171539 54 66 0.9 6.1 0.00 0.31 0.18 77 1011.2
20260506171015 54 0 0.9 6.1 0.00 0.31 0.18 78 1011.2
20260506170517 54 58 0.9 6.1 0.00 0.31 0.18 79 1011.1
20260506170027 54 0 0.0 2.6 0.00 0.31 0.18 79 1011.1
20260506165516 54 0 0.0 2.6 0.00 0.31 0.18 79 1011.0
20260506165015 54 326 0.0 4.3 0.00 0.31 0.18 79 1011.0
20260506164531 54 325 0.9 4.3 0.00 0.31 0.18 79 1010.9
20260506164013 54 325 1.7 3.5 0.00 0.31 0.18 78 1010.9
20260506163517 54 316 1.7 5.2 0.00 0.31 0.18 79 1010.9
20260506163035 54 335 1.7 5.2 0.00 0.31 0.18 78 1010.9
20260506162513 55 339 1.7 4.3 0.00 0.31 0.18 78 1010.8
20260506162014 55 344 0.9 4.3 0.00 0.31 0.18 78 1010.8
20260506161532 55 0 0.9 5.2 0.00 0.31 0.18 79 1010.8
20260506161013 55 0 0.9 5.2 0.00 0.31 0.18 77 1010.8
20260506160515 55 352 0.0 6.1 0.00 0.31 0.18 78 1010.9
20260506160032 55 0 0.0 6.1 0.00 0.31 0.18 77 1010.8
20260506155512 55 319 2.6 7.0 0.00 0.31 0.18 78 1010.9
20260506155016 55 341 0.9 7.0 0.00 0.31 0.18 78 1010.8
20260506154533 55 349 1.7 7.8 0.00 0.31 0.18 78 1010.8
20260506154012 55 331 3.5 7.8 0.00 0.31 0.18 78 1010.7
20260506153513 55 356 1.7 6.1 0.00 0.31 0.18 79 1010.6
20260506153031 55 313 2.6 6.1 0.00 0.31 0.18 79 1010.6
20260506152520 55 334 1.7 6.1 0.00 0.31 0.18 82 1010.7
20260506152014 55 0 0.9 6.1 0.00 0.31 0.18 82 1010.6
20260506151533 54 291 0.9 6.1 0.00 0.31 0.18 82 1010.6